Find Local Weather

World > North America > United States > New Mexico

Elephant Butte, New Mexico Regional Weather

Lat: 33.13N, Lon: 107.25W
Wx Zone: NMZ409
Feedback

Elephant Butte, NM Regional Weather

Expires:201905232000;;341528
ASUS45 KABQ 231910
RWRNM 
NEW MEXICO REGIONAL WEATHER ROUNDUP
NATIONAL WEATHER SERVICE ALBUQUERQUE NM
100 PM MDT THU MAY 23 2019

NOTE: "FAIR" MEANS FEW OR NO CLOUDS BELOW 12,000 FEET AGL WITH NO
       SIGNIFICANT WEATHER OR OBSTRUCTIONS TO VISION.

      THIS PRODUCT IS RELEASED AS TWO VERSIONS.  ONE VERSION NEAR
      THE TOP OF THE HOUR CONTAINING PRELIMINARY DATA FROM ALBUQUERQUE
      AND OTHER STATIONS.  A FINAL VERSION WITH ADDITIONAL DATA IS 
      ISSUED ABOUT 10 MINUTES AFTER THE HOUR.
 

NMZ407-409-411-412-232000-
SOUTHERN DESERTS
  
CITY           SKY/WX    TMP DP  RH WIND       PRES   REMARKS
DEMING         FAIR      73  31  21 SW21G31   29.99F                  
LAS CRUCES     FAIR      78  24  13 W18G29    29.98S                  
HOLLOMAN AFB   FAIR      80  30  16 S14G25    29.94S                  
ALAMOGORDO     FAIR      82  25  12 S20G36    29.93S                  
T OR C         FAIR      71  29  21 S30G43    29.96R                  

$$

SKY/WX - Weather  TMP - Temperature  DP - Dew Point  RH - Relative Humidity
WIND - Wind Direction/Speed PRES - Barometric Pressure VSB - Visibility
WCI - Wind Chill Index E13G22 Wind - East Wind 13 mph/Gusts of 22 mph